EW3246 Weather Reports


time (UTC)temp
C
wind
direction
speed
KPH
gust
KPH
rain 1hr
cm
rain 24hr
cm
rain mn
cm
humidity
%
barometer
mb
20260503055020 4 343 0.0 3.2 0.00 0.00 0.00 86 1014.0
20260503054550 4 343 0.0 3.2 0.00 0.00 0.00 86 1013.9
20260503054031 4 343 0.0 3.2 0.00 0.00 0.00 86 1014.0
20260503053512 4 343 0.0 1.6 0.00 0.00 0.00 86 1014.1
20260503053039 4 343 0.0 1.6 0.00 0.00 0.00 85 1014.1
20260503052520 4 343 0.0 0.0 0.00 0.00 0.00 85 1013.9
20260503052057 4 343 0.0 0.0 0.00 0.00 0.00 86 1014.0
20260503051606 4 343 0.0 3.2 0.00 0.00 0.00 85 1013.9
20260503051048 4 343 0.0 3.2 0.00 0.00 0.00 84 1013.8
20260503050537 4 343 0.0 0.0 0.00 0.00 0.00 84 1013.9
20260503050046 4 343 0.0 0.0 0.00 0.00 0.00 83 1013.8
20260503045526 4 343 0.0 0.0 0.00 0.00 0.00 82 1013.7
20260503045104 5 343 0.0 0.0 0.00 0.00 0.00 82 1013.6
20260503044506 5 343 0.0 0.0 0.00 0.00 0.00 81 1013.5
20260503044055 5 343 0.0 0.0 0.00 0.00 0.00 81 1013.6
20260503043540 5 343 0.0 0.0 0.00 0.00 0.00 80 1013.6
20260503043048 5 343 0.0 0.0 0.00 0.00 0.00 80 1013.5
20260503042534 5 343 0.0 0.0 0.00 0.00 0.00 79 1013.5
20260503042020 5 343 0.0 0.0 0.00 0.00 0.00 79 1013.5
20260503041530 5 343 0.0 0.0 0.00 0.00 0.00 79 1013.6
20260503041017 5 343 0.0 4.8 0.00 0.00 0.00 79 1013.5
20260503040557 5 343 0.0 4.8 0.00 0.00 0.00 79 1013.4
20260503040031 6 343 0.0 0.0 0.00 0.00 0.00 77 1013.3
20260503035558 6 343 0.0 4.8 0.00 0.00 0.00 77 1013.3
20260503035041 6 343 0.0 4.8 0.00 0.00 0.00 78 1013.2
20260503034554 6 343 0.0 0.0 0.00 0.00 0.00 75 1013.2
20260503034038 6 343 0.0 0.0 0.00 0.00 0.00 74 1013.2
20260503033538 6 343 0.0 0.0 0.00 0.00 0.00 73 1013.1
20260503033100 7 343 0.0 0.0 0.00 0.00 0.00 72 1013.1
20260503032534 7 343 0.0 0.0 0.00 0.00 0.00 71 1013.0
20260503032004 7 343 0.0 0.0 0.00 0.00 0.00 73 1012.9
20260503031558 7 343 0.0 0.0 0.00 0.00 0.00 74 1013.0
20260503031041 7 343 0.0 0.0 0.00 0.00 0.00 69 1013.0
20260503030524 7 343 0.0 0.0 0.00 0.00 0.00 70 1012.9
20260503030037 7 343 0.0 0.0 0.00 0.00 0.00 67 1012.9
20260503025506 7 343 0.0 0.0 0.00 0.00 0.00 69 1012.9
20260503025055 7 343 0.0 0.0 0.00 0.00 0.00 65 1012.9
20260503024503 7 343 0.0 0.0 0.00 0.00 0.00 66 1012.9
20260503024047 7 343 0.0 0.0 0.00 0.00 0.00 66 1012.9
20260503023528 8 343 0.0 0.0 0.00 0.00 0.00 66 1012.9
20260503023038 8 343 0.0 0.0 0.00 0.00 0.00 66 1012.8
20260503022526 8 343 0.0 0.0 0.00 0.00 0.00 66 1012.7
20260503022106 8 343 0.0 0.0 0.00 0.00 0.00 63 1012.6
20260503021553 8 343 0.0 0.0 0.00 0.00 0.00 63 1012.7
20260503021030 9 343 0.0 0.0 0.00 0.00 0.00 62 1012.7
20260503020504 9 343 0.0 0.0 0.00 0.00 0.00 63 1012.7
20260503020017 9 343 0.0 0.0 0.00 0.00 0.00 61 1012.6
20260503015601 10 343 0.0 0.0 0.00 0.00 0.00 60 1012.6
20260503015043 10 343 0.0 1.6 0.00 0.00 0.00 61 1012.5
20260503014552 10 343 0.0 3.2 0.00 0.00 0.00 59 1012.4
20260503014033 10 343 0.0 4.8 0.00 0.00 0.00 58 1012.3
20260503013513 10 343 0.0 6.4 0.00 0.00 0.00 55 1012.1
20260503013028 11 343 0.0 6.4 0.00 0.00 0.00 55 1012.1
20260503012501 11 343 1.6 6.4 0.00 0.00 0.00 53 1012.0
20260503012049 11 343 1.6 6.4 0.00 0.00 0.00 53 1012.0
20260503011603 11 342 0.0 4.8 0.00 0.00 0.00 53 1011.9
20260503011038 11 343 0.0 6.4 0.00 0.00 0.00 52 1011.9
20260503010506 11 343 0.0 8.0 0.00 0.00 0.00 52 1011.7
20260503010034 11 343 0.0 9.7 0.00 0.00 0.00 52 1011.6
20260503005514 11 343 1.6 12.9 0.00 0.00 0.00 53 1011.5
20260503005049 11 345 1.6 6.4 0.00 0.00 0.00 54 1011.4
20260503004602 12 345 1.6 6.4 0.00 0.00 0.00 54 1011.4
20260503004040 12 345 0.0 6.4 0.00 0.00 0.00 51 1011.4
20260503003530 12 345 1.6 14.5 0.00 0.00 0.00 51 1011.3
20260503003045 12 345 4.8 14.5 0.00 0.00 0.00 50 1011.1
20260503002530 12 356 3.2 9.7 0.00 0.00 0.00 50 1011.0
20260503002014 12 357 0.0 6.4 0.00 0.00 0.00 50 1011.0
20260503001603 13 357 3.2 6.4 0.00 0.00 0.00 49 1010.8
20260503001045 13 357 0.0 6.4 0.00 0.00 0.00 49 1010.8
20260503000534 13 357 1.6 8.0 0.00 0.00 0.00 47 1010.7
20260503000015 13 357 3.2 9.7 0.00 0.00 0.00 48 1010.6
20260502235501 14 357 1.6 9.7 0.00 0.00 0.00 49 1010.6
20260502235048 14 357 0.0 8.0 0.00 0.00 0.00 47 1010.4
20260502234616 14 357 1.6 8.0 0.00 0.00 0.00 45 1010.3
20260502234053 14 357 1.6 6.4 0.00 0.00 0.00 44 1010.2
20260502233541 14 356 0.0 14.5 0.00 0.00 0.00 47 1010.2
20260502233036 14 356 1.6 16.1 0.00 0.00 0.00 45 1010.0
20260502232507 14 4 0.0 4.8 0.00 0.00 0.00 52 1010.0
20260502232052 14 4 0.0 4.8 0.00 0.00 0.00 51 1009.9
20260502231506 14 4 1.6 8.0 0.00 0.00 0.00 52 1009.9
20260502231100 14 4 3.2 8.0 0.00 0.00 0.00 49 1009.8
20260502230551 14 4 0.0 6.4 0.00 0.00 0.00 51 1009.8
20260502230106 15 4 0.0 3.2 0.00 0.00 0.00 50 1009.8
20260502225551 15 4 0.0 4.8 0.00 0.00 0.00 49 1009.9
20260502225021 15 4 1.6 6.4 0.00 0.00 0.00 48 1009.8
20260502224545 15 4 1.6 8.0 0.00 0.00 0.00 47 1009.8
20260502224028 15 4 1.6 14.5 0.00 0.00 0.00 46 1009.7
20260502223509 15 4 4.8 14.5 0.00 0.00 0.00 48 1009.6
20260502223044 15 9 4.8 12.9 0.00 0.00 0.00 47 1009.5
20260502222525 15 14 3.2 12.9 0.00 0.00 0.00 46 1009.4
20260502222010 15 14 4.8 12.9 0.00 0.00 0.00 46 1009.3
20260502221528 15 14 6.4 12.9 0.00 0.00 0.00 46 1009.3
20260502221007 15 14 1.6 12.9 0.00 0.00 0.00 46 1009.2
20260502220602 15 14 4.8 12.9 0.00 0.00 0.00 50 1009.2
20260502220034 16 20 3.2 12.9 0.00 0.00 0.00 46 1009.2
20260502215605 16 20 6.4 12.9 0.00 0.00 0.00 48 1009.1
20260502215049 16 22 3.2 8.0 0.00 0.00 0.00 45 1009.0
20260502214608 16 22 1.6 8.0 0.00 0.00 0.00 47 1008.9
20260502214040 16 22 1.6 8.0 0.00 0.00 0.00 50 1008.8
20260502213523 16 22 3.2 8.0 0.00 0.00 0.00 49 1008.8
20260502213040 16 22 0.0 8.0 0.00 0.00 0.00 48 1008.6
20260502212508 16 22 1.6 8.0 0.00 0.00 0.00 48 1008.6
20260502212055 16 22 1.6 8.0 0.00 0.00 0.00 49 1008.6
20260502211545 17 22 0.0 3.2 0.00 0.00 0.00 46 1008.5
20260502211017 17 22 0.0 3.2 0.00 0.00 0.00 45 1008.4
20260502210556 17 22 0.0 3.2 0.00 0.00 0.00 47 1008.4
20260502210044 17 22 0.0 3.2 0.00 0.00 0.00 47 1008.4
20260502205518 17 22 0.0 6.4 0.00 0.00 0.00 48 1008.4
20260502205001 17 22 0.0 9.7 0.00 0.00 0.00 47 1008.4
20260502204506 17 22 3.2 11.3 0.00 0.00 0.00 46 1008.4
20260502204054 17 26 3.2 8.0 0.00 0.00 0.00 47 1008.4
20260502203532 17 27 1.6 6.4 0.00 0.00 0.00 44 1008.4
20260502203056 17 27 0.0 8.0 0.00 0.00 0.00 49 1008.4
20260502202536 17 27 1.6 8.0 0.00 0.00 0.00 50 1008.4
20260502202025 17 27 0.0 6.4 0.00 0.00 0.00 51 1008.5
20260502201538 17 27 0.0 8.0 0.00 0.00 0.00 53 1008.6
20260502201005 16 27 1.6 8.0 0.00 0.00 0.00 51 1008.6
20260502200557 16 27 0.0 4.8 0.00 0.00 0.00 54 1008.6
20260502200003 16 27 0.0 1.6 0.00 0.00 0.00 52 1008.7
20260502195550 16 27 0.0 9.7 0.00 0.00 0.00 50 1008.8
20260502195032 16 27 3.2 12.9 0.00 0.00 0.00 49 1009.1
20260502194544 16 28 3.2 9.7 0.00 0.00 0.00 48 1009.1
20260502194025 16 35 1.6 9.7 0.00 0.00 0.00 53 1009.2
20260502193602 16 37 3.2 12.9 0.00 0.00 0.00 50 1009.4
20260502193024 16 37 8.0 14.5 0.00 0.00 0.00 48 1009.4
20260502192601 16 37 1.6 14.5 0.00 0.00 0.00 50 1009.3
20260502192043 16 35 0.0 12.9 0.00 0.00 0.00 50 1009.4
20260502191550 16 35 6.4 12.9 0.00 0.00 0.00 56 1009.4
20260502191036 16 35 3.2 9.7 0.00 0.00 0.00 52 1009.4
20260502190510 16 35 1.6 8.0 0.00 0.00 0.00 50 1009.4
20260502190034 16 36 1.6 6.4 0.00 0.00 0.00 48 1009.4
20260502185517 16 36 1.6 8.0 0.00 0.00 0.00 50 1009.6
20260502185054 16 36 3.2 12.9 0.00 0.00 0.00 52 1009.8
20260502184508 15 36 6.4 12.9 0.00 0.00 0.00 51 1009.8
20260502184054 15 34 3.2 9.7 0.00 0.00 0.00 52 1009.8
20260502183537 15 34 1.6 8.0 0.00 0.00 0.00 53 1009.9
20260502183047 15 34 3.2 8.0 0.00 0.00 0.00 49 1009.8
20260502182526 14 34 3.2 8.0 0.00 0.00 0.00 53 1010.1
20260502182011 14 34 3.2 8.0 0.00 0.00 0.00 52 1010.1
20260502181531 14 34 1.6 8.0 0.00 0.00 0.00 48 1010.2
20260502181008 14 34 0.0 4.8 0.00 0.00 0.00 53 1010.3
20260502180552 14 34 1.6 9.7 0.00 0.00 0.00 49 1010.4
20260502164006 12 36 0.0 8.0 0.00 0.00 0.00 57 1011.8
20260502163603 12 36 0.0 8.0 0.00 0.00 0.00 60 1011.9
20260502163012 12 36 1.6 4.8 0.00 0.00 0.00 57 1012.0
20260502162603 12 36 0.0 9.7 0.00 0.00 0.00 59 1012.0
20260502162050 12 36 0.0 9.7 0.00 0.00 0.00 57 1012.0
20260502161601 12 36 0.0 12.9 0.00 0.00 0.00 58 1012.1
20260502161042 12 36 0.0 12.9 0.00 0.00 0.00 59 1012.3
20260502160531 12 45 3.2 12.9 0.00 0.00 0.00 61 1012.2
20260502152004 11 46 0.0 4.8 0.00 0.00 0.00 64 1012.6
20260502151608 11 46 1.6 4.8 0.00 0.00 0.00 61 1012.4
20260502151044 11 46 0.0 3.2 0.00 0.00 0.00 61 1012.3
20260502150538 11 46 0.0 1.6 0.00 0.00 0.00 60 1012.4
20260502150108 11 46 0.0 3.2 0.00 0.00 0.00 62 1012.4
20260502130558 10 47 0.0 3.2 0.00 0.00 0.00 66 1011.8
20260502123516 10 47 0.0 0.0 0.00 0.00 0.00 70 1011.4
20260502123031 10 47 0.0 0.0 0.00 0.00 0.00 70 1011.4
20260502122526 10 47 0.0 0.0 0.00 0.00 0.00 70 1011.2
20260502122008 10 47 0.0 0.0 0.00 0.00 0.00 74 1011.2
20260502121522 10 47 0.0 0.0 0.00 0.00 0.00 77 1011.3
20260502121104 10 47 0.0 0.0 0.00 0.00 0.00 72 1011.4
20260502120549 10 47 0.0 0.0 0.00 0.00 0.00 75 1011.5
20260502115519 10 47 0.0 0.0 0.00 0.00 0.00 77 1011.5
20260502115056 10 47 0.0 0.0 0.00 0.00 0.00 77 1011.4
20260502114506 10 47 0.0 0.0 0.00 0.00 0.00 75 1011.5
20260502114050 10 47 0.0 0.0 0.00 0.00 0.00 76 1011.5
20260502113535 10 47 0.0 0.0 0.00 0.00 0.00 79 1011.3
20260502113048 10 47 0.0 0.0 0.00 0.00 0.00 79 1011.2
20260502112530 10 47 0.0 0.0 0.00 0.00 0.00 76 1011.1
20260502112017 10 47 0.0 0.0 0.00 0.00 0.00 73 1011.1
20260502111524 10 47 0.0 0.0 0.00 0.00 0.00 75 1010.9
20260502111002 10 47 0.0 3.2 0.00 0.00 0.00 78 1010.9
20260502110546 10 47 0.0 3.2 0.00 0.00 0.00 77 1011.1
20260502110058 9 47 0.0 3.2 0.00 0.00 0.00 78 1010.9
20260502105542 9 47 0.0 0.0 0.00 0.00 0.00 82 1010.9
20260502105028 9 47 0.0 0.0 0.00 0.00 0.00 82 1010.8
20260502104546 9 47 0.0 3.2 0.00 0.00 0.00 83 1010.8
20260502104006 10 47 0.0 3.2 0.00 0.00 0.00 84 1010.7
20260502103555 10 47 0.0 1.6 0.00 0.00 0.00 84 1010.6
20260502103004 10 47 0.0 0.0 0.00 0.00 0.00 84 1010.5
20260502102549 10 47 0.0 0.0 0.00 0.00 0.00 83 1010.7
20260502102032 10 47 0.0 0.0 0.00 0.00 0.00 83 1010.8
20260502101536 10 47 0.0 0.0 0.00 0.00 0.00 84 1010.8
20260502101021 10 47 0.0 0.0 0.00 0.00 0.00 84 1010.8
20260502100558 10 47 0.0 0.0 0.00 0.00 0.00 84 1010.7
20260502100106 10 47 0.0 0.0 0.00 0.00 0.00 85 1010.7
20260502091018 10 47 0.0 0.0 0.00 0.00 0.00 88 1010.9
20260502090502 10 47 0.0 0.0 0.00 0.00 0.00 88 1010.7
20260502071527 10 47 0.0 0.0 0.00 0.00 0.00 88 1009.7
20260502071104 10 47 0.0 0.0 0.00 0.00 0.00 88 1009.7
20260502070546 10 47 0.0 0.0 0.00 0.00 0.00 88 1009.8
20260502070100 10 47 0.0 0.0 0.00 0.00 0.00 88 1009.9
20260502065541 10 47 0.0 0.0 0.00 0.00 0.00 88 1009.9
20260502065032 10 47 0.0 0.0 0.00 0.00 0.00 89 1010.1
20260502064540 10 47 0.0 0.0 0.00 0.00 0.00 89 1010.1
20260502064010 10 47 0.0 0.0 0.00 0.00 0.00 88 1010.2
20260502063554 10 47 0.0 0.0 0.00 0.00 0.00 89 1010.3